Location: Tucson
(32.2217°N, 110.9265°W)
Time: 17:38:37
(UTC-07:00)

ISS - Pass Details

Date: 03 October 2021
Orbit: 417 x 423 km, 51.6° (Epoch: 22 October)

Event Time Altitude Azimuth Distance (km) Brightness Sun altitude
Rises 19:05:16 0° 331° (NNW) 2,359 0.5 -13.5°
Reaches altitude 10° 19:08:05 10° 357° (N) 1,495 -0.9 -14.1°
Maximum altitude 19:10:03 15° 33° (NNE) 1,244 -1.6 -14.5°
Enters shadow 19:10:18 15° 38° (NE) 1,248 -1.7 -14.6°
